Flag for U.S.A. Weather past 2 weeks in Montpelier, Vermont, U.S.A.

Now
16 °F

Clear.


Feels Like: 16 °F
Forecast: 16 / 33 °F
Wind: No wind

Location: Knapp State Airport

Current Time: Apr 1, 2015 at 2:17:27 AM

Latest Report: Apr 1, 2015 at 12:51 AM


Visibility: 10 mi

Pressure: 29.91 "Hg

Humidity: 62%

Dew point: 5 °F

Location of MontpelierLocation

Historic Weather in Montpelier — Graph

°F

Montpelier temperature yesterday

Maximum temperature yesterday: 34 °F (at 3:51 PM)
Minimum temperature yesterday: 19 °F (at 11:51 PM)
Average temperature yesterday: 29 °F

Past Weeks' High & Low Weather Summary

 TemperatureHumidityPressure
High47 °F (Mar 26, 11:51 AM)100% (Mar 26, 7:51 PM)30.45 "Hg (Mar 26, 7:51 PM)
Low0 °F (Mar 24, 6:51 AM)25% (Mar 29, 4:51 PM)29.51 "Hg (Mar 17, 11:51 AM)
Average23 °F64%30.02 "Hg
* Reported Mar 17 12:51 AM — Apr 1 12:51 AM, Montpelier, Weather by CustomWeather, © 2015

Note: Actual official high and low records may vary slightly from our data, if they occured in-between our weather recording intervals... More about our weather records

Advertising

Montpelier weather history for previous 24 hours

 ConditionsComfort  
Time TempWeatherWind HumidityBarometerVisibility
12:51 AM
Wed, Apr 1
16 °FClear.No wind62%29.91 "Hg10 mi
11:51 PM
Tue, Mar 31
19 °FClear.3 mph52%29.91 "Hg10 mi
10:51 PM23 °FClear.5 mph48%29.90 "Hg10 mi
9:51 PM24 °FClear.No wind44%29.90 "Hg10 mi
8:51 PM27 °FClear.No wind39%29.88 "Hg10 mi
7:51 PM28 °FSunny.7 mph37%29.85 "Hg10 mi
6:51 PM32 °FSunny.7 mph33%29.82 "Hg10 mi
5:51 PM34 °FSunny.8 mph34%29.80 "Hg10 mi
4:51 PM33 °FSunny.9 mph35%29.79 "Hg10 mi
3:51 PM34 °FSunny.12 mph34%29.78 "Hg10 mi
2:51 PM33 °FSunny.8 mph40%29.78 "Hg10 mi
1:51 PM33 °FSunny.9 mph43%29.78 "Hg10 mi
12:51 PM31 °FSunny.9 mph49%29.79 "Hg10 mi
11:51 AM30 °FPassing clouds.12 mph54%29.80 "Hg10 mi
10:51 AM28 °FPartly sunny.14 mph64%29.81 "Hg10 mi
9:51 AM27 °FLight snow. Overcast.12 mph72%29.82 "Hg7 mi
8:51 AM26 °FOvercast.6 mph77%29.81 "Hg8 mi
7:51 AM26 °FLight snow. Overcast.6 mph81%29.81 "Hg3 mi
6:51 AM27 °FMostly cloudy.12 mph78%29.79 "Hg10 mi
4:51 AM28 °FOvercast.7 mph78%29.77 "Hg10 mi
3:51 AM28 °FOvercast.15 mph81%29.75 "Hg8 mi
Weather by CustomWeather, © 2015

See weather overviewHow to use our weather pages